Weather History for Ely, MN

Change the Weather History Date:

Tuesday, October 23, 2012

  Actual Average Record
Temperature  
Mean Temperature 45 °F -  
Max Temperature 48 °F 46 °F 69 °F (1998)
Min Temperature 42 °F 31 °F 24 °F (1997)
Degree Days  
Heating Degree Days 20    
Moisture  
Dew Point 43 °F    
Average Humidity 91    
Maximum Humidity 100    
Minimum Humidity 76    
Precipitation  
Precipitation 0.15 in - - ()
Sea Level Pressure  
Sea Level Pressure 29.86 in    
Wind  
Wind Speed 9 mph (ESE)    
Max Wind Speed 15 mph    
Max Gust Speed 21 mph    
Visibility 10 miles    
Events Rain , Thunderstorm    
Averages and records for this station are not official NWS values.
T = Trace of Precipitation, MM = Missing Value Source: NWS Daily Summary

Daily Weather History Graph

Daily Weather History Graph

Search for Another Location

Airport:

Trip Planner

Search our weather history database for the weather conditions in past years. The results will help you decide how hot, cold, wet, or windy it might be!

Date:

Astronomy

Oct. 23, 2012 Rise Set
Actual Time 7:38 AM CDT 6:03 PM CDT
Civil Twilight 7:07 AM CDT 6:35 PM CDT
Nautical Twilight 6:31 AM CDT 7:11 PM CDT
Astronomical Twilight 5:55 AM CDT 7:46 PM CDT
Moon 3:09 PM CDT (10/23) 1:05 AM CDT (10/23)
Length of Visible Light 11h 27m
Length of Day
10h 24m
Waxing Gibbous, 67% of the Moon is Illuminated
Oct 23
Waxing Gibbous
Oct 29
Full
Nov 6
Last Quarter
Nov 13
New
Nov 20
First Quarter

Hourly Weather History & Observations

Time (CDT) Temp. Windchill Dew Point Humidity Pressure Visibility Wind Dir Wind Speed Gust Speed Precip Events Conditions
12:12 AM 44.6 °F 39.7 °F 39.2 °F 81% 30.02 in 10.0 mi East 9.2 mph 16.1 mph N/A   Scattered Clouds
12:33 AM 44.6 °F 39.2 °F 39.2 °F 81% 30.01 in 10.0 mi East 10.4 mph 16.1 mph N/A   Mostly Cloudy
12:53 AM 46.4 °F 40.7 °F 39.2 °F 76% 30.00 in 10.0 mi ESE 12.7 mph 17.3 mph N/A   Mostly Cloudy
1:13 AM 46.4 °F 41.1 °F 39.2 °F 76% 30.00 in 10.0 mi East 11.5 mph 16.1 mph N/A   Mostly Cloudy
1:33 AM 46.4 °F 42.4 °F 39.2 °F 76% 30.00 in 10.0 mi East 8.1 mph 16.1 mph N/A   Overcast
1:53 AM 46.4 °F 41.9 °F 39.2 °F 76% 29.99 in 10.0 mi East 9.2 mph - N/A   Mostly Cloudy
2:12 AM 46.4 °F 42.4 °F 39.2 °F 76% 29.98 in 10.0 mi East 8.1 mph 16.1 mph N/A   Mostly Cloudy
2:33 AM 46.4 °F 41.1 °F 39.2 °F 76% 29.99 in 10.0 mi ESE 11.5 mph - N/A   Mostly Cloudy
2:53 AM 44.6 °F 40.2 °F 39.2 °F 81% 29.99 in 10.0 mi East 8.1 mph 19.6 mph N/A   Overcast
3:12 AM 44.6 °F 38.8 °F 39.2 °F 81% 29.98 in 10.0 mi East 11.5 mph 16.1 mph N/A   Overcast
3:33 AM 44.6 °F 38.4 °F 39.2 °F 81% 29.98 in 10.0 mi East 12.7 mph 18.4 mph N/A Thunderstorm Overcast
3:53 AM 44.6 °F 39.7 °F 39.2 °F 81% 29.97 in 5.0 mi East 9.2 mph - 0.02 in Rain Light Rain
4:13 AM 42.8 °F 39.3 °F 41.0 °F 93% 29.97 in 10.0 mi ENE 5.8 mph - N/A   Overcast
4:33 AM 42.8 °F 38.0 °F 41.0 °F 93% 29.95 in 10.0 mi East 8.1 mph - N/A   Overcast
5:13 AM 42.8 °F 37.5 °F 42.8 °F 100% 29.94 in 10.0 mi East 9.2 mph - N/A Thunderstorm Unknown
5:32 AM 42.8 °F 38.6 °F 42.8 °F 100% 29.94 in 7.0 mi East 6.9 mph - 0.05 in Rain , Thunderstorm Rain
5:53 AM 44.6 °F 43.1 °F 42.8 °F 93% 29.95 in 10.0 mi East 3.5 mph - 0.05 in Thunderstorm Overcast
6:12 AM 44.6 °F 40.2 °F 42.8 °F 93% 29.95 in 10.0 mi East 8.1 mph - N/A Rain , Thunderstorm Thunderstorms and Rain
6:33 AM 44.6 °F 38.1 °F 42.8 °F 93% 29.92 in 7.0 mi East 13.8 mph - 0.06 in Rain , Thunderstorm Thunderstorms and Rain
6:53 AM 44.6 °F 37.8 °F 42.8 °F 93% 29.92 in 10.0 mi East 15.0 mph 20.7 mph 0.08 in Rain , Thunderstorm Light Thunderstorms and Rain
7:12 AM 44.6 °F 38.4 °F 42.8 °F 93% 29.91 in 10.0 mi ESE 12.7 mph 17.3 mph N/A Thunderstorm Overcast
7:33 AM 44.6 °F 39.7 °F 42.8 °F 93% 29.90 in 10.0 mi East 9.2 mph 16.1 mph N/A   Overcast
7:53 AM 44.6 °F 39.2 °F 42.8 °F 93% 29.90 in 10.0 mi East 10.4 mph 19.6 mph N/A   Overcast
8:12 AM 44.6 °F 37.8 °F 42.8 °F 93% 29.90 in 10.0 mi East 15.0 mph 19.6 mph N/A   Overcast
8:33 AM 44.6 °F 37.8 °F 42.8 °F 93% 29.90 in 10.0 mi ESE 15.0 mph 19.6 mph N/A   Overcast
8:53 AM 42.8 °F 36.2 °F 41.0 °F 93% 29.91 in 10.0 mi East 12.7 mph 18.4 mph N/A   Overcast
9:12 AM 44.6 °F 40.2 °F 42.8 °F 93% 29.90 in 10.0 mi East 8.1 mph - N/A   Overcast
9:33 AM 44.6 °F 40.2 °F 42.8 °F 93% 29.90 in 10.0 mi East 8.1 mph - N/A   Overcast
9:53 AM 44.6 °F 40.2 °F 42.8 °F 93% 29.90 in 10.0 mi East 8.1 mph - N/A   Overcast
10:12 AM 44.6 °F 40.7 °F 42.8 °F 93% 29.89 in 10.0 mi East 6.9 mph - N/A   Overcast
10:33 AM 44.6 °F 41.4 °F 42.8 °F 93% 29.89 in 10.0 mi East 5.8 mph - N/A   Overcast
10:53 AM 44.6 °F 39.7 °F 42.8 °F 93% 29.89 in 10.0 mi East 9.2 mph - N/A   Overcast
11:12 AM 44.6 °F 39.2 °F 42.8 °F 93% 29.88 in 10.0 mi East 10.4 mph - N/A   Overcast
11:33 AM 44.6 °F 40.7 °F 42.8 °F 93% 29.88 in 10.0 mi East 6.9 mph - N/A   Overcast
11:52 AM 46.4 °F 42.4 °F 44.6 °F 93% 29.88 in 10.0 mi East 8.1 mph - N/A   Overcast
12:13 PM 46.4 °F 40.7 °F 44.6 °F 93% 29.86 in 10.0 mi East 12.7 mph - N/A   Overcast
12:32 PM 46.4 °F 41.5 °F 44.6 °F 93% 29.85 in 10.0 mi East 10.4 mph - N/A   Overcast
12:53 PM 46.4 °F 41.5 °F 44.6 °F 93% 29.84 in 10.0 mi ESE 10.4 mph 16.1 mph N/A   Overcast
1:13 PM 46.4 °F 40.1 °F 44.6 °F 93% 29.82 in 10.0 mi ESE 15.0 mph 20.7 mph N/A   Overcast
1:32 PM 46.4 °F 40.1 °F 44.6 °F 93% 29.82 in 10.0 mi ESE 15.0 mph 19.6 mph N/A   Overcast
1:53 PM 46.4 °F 40.7 °F 44.6 °F 93% 29.82 in 10.0 mi ESE 12.7 mph 19.6 mph N/A   Overcast
2:13 PM 46.4 °F 41.1 °F 44.6 °F 93% 29.83 in 10.0 mi East 11.5 mph 16.1 mph N/A   Overcast
2:32 PM 46.4 °F 41.9 °F 44.6 °F 93% 29.82 in 10.0 mi ESE 9.2 mph - N/A   Overcast
2:53 PM 46.4 °F 41.1 °F 44.6 °F 93% 29.80 in 10.0 mi East 11.5 mph 16.1 mph N/A   Overcast
3:13 PM 46.4 °F 40.7 °F 44.6 °F 93% 29.80 in 10.0 mi ESE 12.7 mph 17.3 mph N/A   Overcast
3:33 PM 46.4 °F 40.7 °F 44.6 °F 93% 29.80 in 10.0 mi ESE 12.7 mph 17.3 mph N/A   Overcast
3:53 PM 48.2 °F - 44.6 °F 87% 29.79 in 10.0 mi ESE 11.5 mph 17.3 mph N/A   Overcast
4:13 PM 48.2 °F - 44.6 °F 87% 29.78 in 10.0 mi East 9.2 mph 17.3 mph N/A   Overcast
4:32 PM 48.2 °F - 44.6 °F 87% 29.79 in 10.0 mi ESE 8.1 mph - N/A   Overcast
4:53 PM 48.2 °F - 44.6 °F 87% 29.78 in 10.0 mi East 8.1 mph - N/A   Overcast
5:13 PM 46.4 °F 42.4 °F 44.6 °F 93% 29.77 in 5.0 mi ESE 8.1 mph - N/A   Drizzle
5:32 PM 46.4 °F 42.9 °F 44.6 °F 93% 29.78 in 10.0 mi ESE 6.9 mph - N/A   Overcast
5:53 PM 46.4 °F 41.9 °F 44.6 °F 93% 29.77 in 10.0 mi ESE 9.2 mph - N/A   Overcast
6:12 PM 46.4 °F 41.9 °F 44.6 °F 93% 29.77 in 10.0 mi ESE 9.2 mph - N/A   Overcast
6:33 PM 46.4 °F 41.5 °F 44.6 °F 93% 29.77 in 10.0 mi ESE 10.4 mph - N/A   Overcast
6:53 PM 46.4 °F 42.9 °F 44.6 °F 93% 29.77 in 10.0 mi ESE 6.9 mph - N/A   Overcast
7:13 PM 46.4 °F 43.5 °F 44.6 °F 93% 29.77 in 10.0 mi ESE 5.8 mph - N/A   Overcast
7:33 PM 48.2 °F - 46.4 °F 93% 29.77 in 10.0 mi East 3.5 mph - N/A   Overcast
7:53 PM 48.2 °F - 46.4 °F 93% 29.76 in 10.0 mi ESE 4.6 mph - N/A   Overcast
8:13 PM 48.2 °F - 46.4 °F 93% 29.77 in 10.0 mi ESE 4.6 mph - N/A   Overcast
8:33 PM 48.2 °F - 46.4 °F 93% 29.76 in 10.0 mi ESE 6.9 mph - N/A   Overcast
8:53 PM 48.2 °F - 46.4 °F 93% 29.74 in 10.0 mi SE 8.1 mph - N/A   Overcast
9:13 PM 48.2 °F - 46.4 °F 93% 29.75 in 10.0 mi SE 9.2 mph - N/A   Overcast
9:33 PM 48.2 °F - 46.4 °F 93% 29.75 in 10.0 mi SE 8.1 mph - N/A   Overcast
9:53 PM 48.2 °F - 46.4 °F 93% 29.75 in 10.0 mi SE 9.2 mph - N/A   Overcast
10:13 PM 48.2 °F - 46.4 °F 93% 29.75 in 10.0 mi SE 8.1 mph - N/A   Overcast
10:33 PM 48.2 °F - 46.4 °F 93% 29.76 in 10.0 mi SSE 4.6 mph - N/A   Overcast
10:53 PM 48.2 °F - 46.4 °F 93% 29.76 in 10.0 mi Calm Calm - N/A   Overcast
11:13 PM 48.2 °F - 46.4 °F 93% 29.75 in 10.0 mi South 4.6 mph - N/A Rain Light Rain
11:33 PM 48.2 °F - 46.4 °F 93% 29.74 in 5.0 mi SE 4.6 mph - N/A   Overcast
11:53 PM 48.2 °F - 48.2 °F 100% 29.74 in 4.0 mi SE 4.6 mph - N/A   Overcast